C/2020 V2 ( ZTF )

Japanese version
Home page
Updated on April 5, 2021

---------------------------------------------------------------------

* Profile

Discovery Date November 2, 2020
Magnitude 19.0 mag
Discoverer Zwicky Transient Facility

* Pictures

* Orbital Elements

Epoch 2023 May 16.0 TT = JDT 2460080.5
T 2023 May 8.60541 TT                                   Rudenko
q   2.2278023            (2000.0)            P               Q
z  -0.0004983      Peri.  162.43198     +0.69788426     +0.59389858
 +/-0.0000091      Node   212.37138     +0.53387016     -0.05879191
e   1.0011101      Incl.  131.61167     +0.47743084     -0.80238893
From 437 observations 2020 Apr. 18-2021 Mar. 25, mean residual 0".4.

* Finding Charts

* Magnitudes Graph

        m1 = 4.0 + 5 log d + 10.0 log r

---------------------------------------------------------------------

The orbital elements are published on M.P.E.C. 2021-F115.
The charts are made with StellaNavigator Ver.10 (AstroArts).
The magnitudes graphs are made with Comet for Windows.

---------------------------------------------------------------------

Copyright(C) Seiichi Yoshida (comet@aerith.net). All rights reserved.